Regional Weather Roundup
Issued by NWS

Home | Current Version | Previous Version | Text Only | Print | Product List | Glossary Off
Versions: 1 2 3 4 5 6 7 8 9 10 11 12 13 14 15 16 17 18 19 20 21 22 23 24 25 26 27 28 29 30 31 32 33 34 35 36 37 38 39 40 41 42 43 44 45 46 47 48 49 50

000
ASUS43 KBIS 050710
RWRND

NORTH DAKOTA REGIONAL WEATHER ROUNDUP
NATIONAL WEATHER SERVICE BISMARCK ND
200 AM CDT TUE MAY 05 2015

NOTE: "FAIR" INDICATES FEW OR NO CLOUDS BELOW 12,000 FEET WITH NO
SIGNIFICANT WEATHER AND/OR OBSTRUCTIONS TO VISIBILITY.


NDZ001>003-009>011-017-050800-
NORTHWEST NORTH DAKOTA

CITY           SKY/WX    TMP DP  RH WIND       PRES   REMARKS
WILLISTON      CLEAR     53  30  41 S10G20    30.00F
MINOT          CLOUDY    54  32  43 SE7       30.08F
MINOT AFB      MOCLDY    53  34  49 S7        30.07F
$$

NDZ018>021-031>035-040>046-050800-
SOUTHWEST NORTH DAKOTA

CITY           SKY/WX    TMP DP  RH WIND       PRES   REMARKS
BISMARCK       CLOUDY    53  31  42 SE3       30.12S
DICKINSON      CLEAR     43  29  57 S10       30.04S
GARRISON         N/A     51  33  50 SE3       30.09F
HETTINGER ARPT CLOUDY    50  27  40 SE10      30.07F
$$

NDZ004>008-012>016-024-026-027-054-050800-
NORTHEAST NORTH DAKOTA

CITY           SKY/WX    TMP DP  RH WIND       PRES   REMARKS
GRAND FORKS    CLEAR     45  26  47 SE6       30.17S
GRND FRKS AFB  CLEAR     45  25  45 S7        30.17S
DEVILS LAKE    CLEAR     50  32  50 S8        30.14F
$$

NDZ022-023-025-028>030-036>039-047>053-050800-
SOUTHEAST NORTH DAKOTA

CITY           SKY/WX    TMP DP  RH WIND       PRES   REMARKS
FARGO          CLEAR     50  27  40 SE6       30.19R
JAMESTOWN      CLEAR     47  26  44 S7        30.16S
$$




USA.gov is the U.S. government's official web portal to all federal, state and local government web resources and services.